Location: Akdamlar
(36.8729°N, 30.5187°E)
Time: 19:05:58
(UTC+00:00)

Meteor 1-21 - Pass Details

Date: 18 September 2020
Orbit: 845 x 887 km, 81.2° (Epoch: 26 October)

Event Time Altitude Azimuth Distance (km) Brightness Sun altitude
Rises 16:33:35 0° 357° (N) 3,420 7.5 -7.4°
Reaches altitude 10° 16:36:08 10° 4° (N) 2,478 6.7 -7.9°
Maximum altitude 16:41:31 47° 77° (ENE) 1,115 4.5 -9.0°
Drops below altitude 10° 16:46:51 10° 151° (SSE) 2,459 6.3 -10.0°
Sets 16:49:21 0° 157° (SSE) 3,392 7.0 -10.5°
